TimePST,TemperatureF,Dew PointF,Humidity,Sea Level PressureIn,VisibilityMPH,Wind Direction,Wind SpeedMPH,Gust SpeedMPH,PrecipitationIn,Events,Conditions,WindDirDegrees,DateUTC
12:15 AM,36.5,28.0,71,29.65,10.0,WSW,29.9,42.6,N/A,,Overcast,240,2014-01-12 08:15:00
12:35 AM,36.5,27.3,69,29.65,10.0,WSW,27.6,39.1,N/A,,Overcast,240,2014-01-12 08:35:00
12:55 AM,36.5,26.8,68,29.66,10.0,WSW,27.6,33.4,N/A,,Overcast,240,2014-01-12 08:55:00
1:15 AM,36.5,26.1,66,29.68,10.0,WSW,24.2,36.8,N/A,,Overcast,240,2014-01-12 09:15:00
1:35 AM,36.7,25.7,64,29.69,10.0,WSW,23.0,34.5,N/A,,Mostly Cloudy,250,2014-01-12 09:35:00
1:55 AM,36.7,25.5,64,29.72,10.0,WSW,24.2,35.7,N/A,,Overcast,240,2014-01-12 09:55:00
2:15 AM,36.7,25.9,65,29.73,10.0,WSW,25.3,29.9,N/A,,Overcast,240,2014-01-12 10:15:00
2:35 AM,36.7,26.1,65,29.74,10.0,WSW,23.0,29.9,N/A,,Overcast,240,2014-01-12 10:35:00
2:55 AM,36.5,25.9,65,29.76,10.0,WSW,27.6,41.4,N/A,,Overcast,250,2014-01-12 10:55:00
3:15 AM,36.5,25.5,64,29.77,10.0,WSW,24.2,39.1,N/A,,Overcast,250,2014-01-12 11:15:00
3:35 AM,36.5,24.8,63,29.77,10.0,West,26.5,40.3,N/A,,Scattered Clouds,260,2014-01-12 11:35:00
3:55 AM,36.5,24.8,63,29.79,10.0,WSW,21.9,29.9,N/A,,Scattered Clouds,250,2014-01-12 11:55:00
4:15 AM,36.5,25.0,63,29.81,10.0,WSW,28.8,35.7,N/A,,Scattered Clouds,250,2014-01-12 12:15:00
4:35 AM,36.0,25.5,66,29.82,10.0,WSW,26.5,35.7,N/A,,Scattered Clouds,250,2014-01-12 12:35:00
4:55 AM,36.0,25.5,66,29.83,10.0,WSW,26.5,38.0,N/A,,Scattered Clouds,250,2014-01-12 12:55:00
5:15 AM,36.1,24.8,63,29.85,10.0,WSW,27.6,38.0,N/A,,Scattered Clouds,250,2014-01-12 13:15:00
5:35 AM,36.3,23.9,61,29.87,10.0,WSW,27.6,36.8,N/A,,Mostly Cloudy,240,2014-01-12 13:35:00
5:55 AM,36.3,22.3,57,29.89,10.0,WSW,24.2,31.1,N/A,,Mostly Cloudy,250,2014-01-12 13:55:00
6:15 AM,36.1,21.4,55,29.90,10.0,WSW,21.9,36.8,N/A,,Scattered Clouds,250,2014-01-12 14:15:00
6:35 AM,36.3,20.7,53,29.92,10.0,WSW,25.3,33.4,N/A,,Scattered Clouds,250,2014-01-12 14:35:00
6:55 AM,36.0,21.0,55,29.93,10.0,WSW,20.7,28.8,N/A,,Scattered Clouds,250,2014-01-12 14:55:00
7:15 AM,36.1,21.2,55,29.96,10.0,WSW,17.3,26.5,N/A,,Mostly Cloudy,250,2014-01-12 15:15:00
7:35 AM,36.0,21.2,55,29.96,10.0,WSW,23.0,32.2,N/A,,Overcast,250,2014-01-12 15:35:00
7:55 AM,35.8,22.3,58,29.98,10.0,WSW,19.6,29.9,N/A,,Overcast,250,2014-01-12 15:55:00
8:15 AM,35.8,22.6,59,30.00,10.0,WSW,18.4,24.2,N/A,,Overcast,250,2014-01-12 16:15:00
8:35 AM,36.0,22.8,59,30.01,10.0,WSW,17.3,24.2,N/A,,Overcast,250,2014-01-12 16:35:00
8:55 AM,36.0,23.2,60,30.03,10.0,WSW,16.1,27.6,N/A,,Overcast,240,2014-01-12 16:55:00
9:15 AM,36.0,23.7,61,30.04,10.0,WSW,16.1,29.9,N/A,,Overcast,240,2014-01-12 17:15:00
9:35 AM,36.0,23.9,62,30.06,10.0,WSW,17.3,29.9,N/A,,Overcast,240,2014-01-12 17:35:00
9:55 AM,36.3,23.9,61,30.07,10.0,SW,20.7,32.2,N/A,,Overcast,220,2014-01-12 17:55:00
10:15 AM,36.5,23.7,60,30.07,10.0,SW,24.2,29.9,N/A,,Overcast,220,2014-01-12 18:15:00
10:35 AM,36.0,24.8,64,30.08,7.0,SW,18.4,29.9,N/A,,Overcast,230,2014-01-12 18:35:00
10:55 AM,35.6,25.9,68,30.08,10.0,SW,17.3,27.6,N/A,,Overcast,230,2014-01-12 18:55:00
11:15 AM,35.6,26.4,69,30.08,10.0,SW,19.6,28.8,N/A,,Overcast,220,2014-01-12 19:15:00
11:35 AM,36.0,27.0,70,30.08,10.0,SW,20.7,27.6,N/A,,Overcast,230,2014-01-12 19:35:00
11:55 AM,36.7,26.8,67,30.08,10.0,WSW,17.3,28.8,N/A,,Overcast,240,2014-01-12 19:55:00
12:15 PM,36.9,27.1,68,30.08,10.0,SW,17.3,27.6,N/A,,Overcast,230,2014-01-12 20:15:00
12:35 PM,36.1,27.9,72,30.07,4.0,SW,17.3,31.1,N/A,,Overcast,230,2014-01-12 20:35:00
12:55 PM,35.6,28.8,76,30.07,7.0,SW,17.3,26.5,N/A,,Overcast,230,2014-01-12 20:55:00
1:15 PM,35.6,29.3,78,30.07,10.0,SW,19.6,28.8,N/A,,Overcast,230,2014-01-12 21:15:00
1:35 PM,35.6,29.7,79,30.08,10.0,SW,23.0,28.8,N/A,,Overcast,220,2014-01-12 21:35:00
1:55 PM,35.8,29.7,78,30.07,10.0,SW,18.4,28.8,N/A,,Overcast,230,2014-01-12 21:55:00
2:15 PM,35.8,30.0,80,30.08,10.0,WSW,12.7,-,N/A,,Overcast,240,2014-01-12 22:15:00
2:35 PM,35.8,29.7,78,30.08,10.0,SW,19.6,31.1,N/A,,Overcast,220,2014-01-12 22:35:00
2:55 PM,35.4,29.7,80,30.08,3.0,SW,26.5,32.2,N/A,,Overcast,220,2014-01-12 22:55:00
3:15 PM,35.2,29.8,81,30.08,2.5,SSW,21.9,29.9,N/A,,Overcast,210,2014-01-12 23:15:00
3:35 PM,35.4,29.8,80,30.09,4.0,SSW,18.4,33.4,N/A,,Overcast,210,2014-01-12 23:35:00
3:55 PM,36.0,29.7,78,30.09,7.0,SW,26.5,31.1,N/A,,Overcast,220,2014-01-12 23:55:00
4:15 PM,36.9,29.7,75,30.09,10.0,SW,26.5,34.5,N/A,,Overcast,220,2014-01-13 00:15:00
4:35 PM,37.6,29.8,74,30.10,10.0,SW,29.9,35.7,N/A,,Overcast,230,2014-01-13 00:35:00
4:55 PM,37.4,30.4,76,30.11,10.0,SW,25.3,35.7,N/A,,Overcast,230,2014-01-13 00:55:00
5:15 PM,37.4,30.6,76,30.10,10.0,SW,25.3,32.2,N/A,,Overcast,220,2014-01-13 01:15:00
5:35 PM,37.6,30.7,76,30.10,10.0,SW,27.6,34.5,N/A,,Overcast,220,2014-01-13 01:35:00
5:55 PM,38.1,31.1,76,30.11,10.0,SW,26.5,34.5,N/A,,Overcast,220,2014-01-13 01:55:00
6:15 PM,38.3,31.6,77,30.11,10.0,SW,26.5,35.7,N/A,,Overcast,220,2014-01-13 02:15:00
6:35 PM,38.3,31.8,77,30.11,10.0,SW,25.3,31.1,N/A,,Overcast,220,2014-01-13 02:35:00
6:55 PM,38.3,32.0,78,30.10,10.0,SW,24.2,32.2,N/A,,Overcast,220,2014-01-13 02:55:00
7:15 PM,38.7,32.0,77,30.10,10.0,SSW,21.9,31.1,N/A,,Overcast,210,2014-01-13 03:15:00
7:35 PM,38.8,32.0,76,30.11,10.0,SW,25.3,32.2,N/A,,Overcast,220,2014-01-13 03:35:00
7:55 PM,39.0,32.2,76,30.10,10.0,SW,25.3,32.2,N/A,,Overcast,220,2014-01-13 03:55:00
8:15 PM,39.2,32.2,76,30.11,10.0,SW,25.3,36.8,N/A,,Overcast,220,2014-01-13 04:15:00
8:35 PM,39.2,32.4,76,30.13,10.0,SW,24.2,31.1,N/A,,Overcast,220,2014-01-13 04:35:00
8:55 PM,39.2,32.9,78,30.12,10.0,SW,27.6,36.8,N/A,,Overcast,220,2014-01-13 04:55:00
9:15 PM,39.7,32.4,75,30.13,10.0,SW,24.2,33.4,N/A,,Overcast,220,2014-01-13 05:15:00
9:35 PM,40.1,32.0,73,30.14,10.0,SW,26.5,32.2,N/A,,Overcast,220,2014-01-13 05:35:00
9:55 PM,40.3,32.0,72,30.15,10.0,SW,25.3,36.8,N/A,,Overcast,220,2014-01-13 05:55:00
10:15 PM,40.5,32.0,72,30.15,10.0,SW,26.5,31.1,N/A,,Overcast,220,2014-01-13 06:15:00
10:35 PM,40.1,32.0,73,30.15,10.0,SW,23.0,36.8,N/A,,Mostly Cloudy,220,2014-01-13 06:35:00
10:55 PM,39.7,32.0,74,30.16,10.0,SW,21.9,29.9,N/A,,Scattered Clouds,220,2014-01-13 06:55:00
11:15 PM,40.3,32.0,72,30.17,10.0,SW,24.2,28.8,N/A,,Mostly Cloudy,220,2014-01-13 07:15:00
11:35 PM,41.0,32.0,70,30.17,10.0,SW,23.0,31.1,N/A,,Overcast,220,2014-01-13 07:35:00
11:55 PM,41.5,32.2,69,30.18,10.0,SW,25.3,36.8,N/A,,Overcast,220,2014-01-13 07:55:00